Погода в Хамитове

Россия / Республика Башкортостан     53°30′15″N   57°59′17″E
темп.,
°C
ветер,
м/с
пор.,
м/с
влажн.,
%
обл.,
%
осадки,
мм/ч
давл.,
гПа
погр.,
м
17 июня, чт
чт1723:00+14ссз2281100 0.6 101524
02:00+15ююв228099 0.1 101333
05:00+14в1179100 0.1 101111
08:00+21ююз2454100 0.1 1009196
11:00+25зюз3540100 0.1 1008786
14:00+27зюз5839100 0.0 10072098
17:00+20зсз61171100 0.0 1008665
20:00+17сз61289100 0.4 1009776
18 июня, пт
пт1823:00+12сз412931 0.4 1012748
02:00+9сз26910 0.0 1013162
05:00+7сз21975 0.0 101521
08:00+13ссз48630 0.0 1015928
11:00+16ссз57405 0.0 10161912
14:00+18ссз773471 0.0 10172676
17:00+17ссз563818 0.0 10182228
20:00+14ссз47475 0.0 1020945
19 июня, сб
сб1923:00+8сз11755 0.0 102314
02:00+6сз1191100 0.0 102410
05:00+6сз1188100 0.0 102510
08:00+12зсз255886 0.0 1024517
11:00+17сз4743100 0.0 10231556
14:00+18сз5845100 0.0 10221420
17:00+14зсз31062100 0.0 1022771
20:00+17зсз5116798 0.0 10201211
20 июня, вс
вс2023:00+14з4138498 0.0 1019716
02:00+13з3129716 0.0 1018495
05:00+13з399982 0.0 1018292
08:00+17зсз5127932 0.0 1017688
11:00+19зсз51270100 0.0 1016804
14:00+23сз8135917 0.1 10151620
17:00+21сз6137451 1.4 10151370
20:00+19сз611585 0.0 10161227
21 июня, пн
пн2123:00+13сз26840 0.0 1018120
02:00+9сз11960 0.0 101911
05:00+8ссз11930 0.0 102111
08:00+14ссз37482 0.0 1021587
11:00+19ссз57335 0.0 10201041
14:00+21ссз573441 0.0 10201580
17:00+22ссз573912 0.0 10191703
20:00+19сз36585 0.0 1019620